DW1970 Weather Reports


Display with metric or nautical units.
time (UTC)temp
F
wind
direction
speed
MPH
gust
MPH
rain 1hr
in
rain 24hr
in
rain mn
in
humidity
%
barometer
mb
20260901161543 58 326 0.0 1.0 0.00 0.02 0.02 97 1016.0
20260901160022 58 272 0.0 0.0 0.00 0.02 0.02 97 1015.8
20260901154521 58 272 0.0 0.0 0.00 0.02 0.02 97 1015.8
20260901153021 58 272 0.0 0.0 0.00 0.02 0.02 98 1015.6
20260901151520 57 272 0.0 0.0 0.00 0.02 0.02 97 1015.4
20260901150028 57 272 0.0 0.0 0.00 0.02 0.02 97 1015.2
20260901144528 57 262 0.0 0.0 0.00 0.02 0.02 97 1015.1
20260901143013 57 12 0.0 0.0 0.00 0.02 0.02 97 1014.8
20260901141514 57 19 0.0 0.0 0.00 0.02 0.02 97 1014.6
20260901140010 57 18 0.0 0.0 0.01 0.02 0.02 97 1014.4
20260901134509 57 16 0.0 0.0 0.01 0.02 0.02 97 1014.3
20260901133008 57 350 0.0 0.0 0.01 0.02 0.02 97 1014.2
20260901131507 57 324 0.0 0.0 0.01 0.02 0.02 97 1014.2
20260901130007 57 357 0.0 0.0 0.00 0.01 0.01 97 1014.1
20260901124558 57 357 0.0 0.0 0.00 0.01 0.01 97 1013.9
20260901123057 57 357 0.0 0.0 0.00 0.01 0.01 97 1013.9
20260901121556 57 357 0.0 0.0 0.00 0.01 0.01 97 1013.7
20260901120056 58 357 0.0 0.0 0.00 0.01 0.01 97 1013.7
20260901114637 58 1 0.0 0.0 0.00 0.01 0.01 97 1013.7
20260901113057 58 5 0.0 0.0 0.00 0.01 0.01 97 1013.6
20260901111554 58 20 0.0 0.0 0.00 0.01 0.01 97 1013.7
20260901110054 57 31 0.0 1.0 0.00 0.01 0.01 97 1013.8
20260901104551 57 6 0.0 0.0 0.00 0.01 0.01 97 1014.1
20260901103049 57 2 0.0 0.0 0.01 0.01 0.01 97 1014.0
20260901101550 57 2 0.0 0.0 0.01 0.01 0.01 97 1014.0
20260901100054 57 358 0.0 0.0 0.01 0.01 0.01 97 1014.0
20260901094548 57 340 0.0 0.0 0.01 0.01 0.01 97 1013.9
20260901093046 57 345 0.0 0.0 0.00 0.00 0.00 97 1013.8
20260901091545 57 21 0.0 0.0 0.00 0.00 0.00 97 1013.9
20260901090049 57 16 0.0 0.0 0.00 0.00 0.00 97 1013.8
20260901084550 57 5 0.0 0.0 0.00 0.00 0.00 97 1013.8
20260901083043 56 357 0.0 0.0 0.00 0.00 0.00 97 1013.8
20260901081541 56 19 0.0 0.0 0.00 0.00 0.00 96 1013.6
20260901080041 56 14 0.0 0.0 0.00 0.00 0.00 96 1013.5
20260901074546 56 18 0.0 0.0 0.00 0.00 0.00 96 1013.5
20260901073039 56 358 0.0 0.0 0.00 0.00 0.00 96 1013.7
20260901071538 56 23 0.0 0.0 0.00 0.00 0.00 96 1013.5
20260901070042 57 16 0.0 0.0 0.00 0.00 0.00 96 1013.5
20260901064535 57 6 0.0 2.0 0.00 0.00 0.00 96 1013.6
20260901063035 57 15 0.0 2.0 0.00 0.00 0.00 96 1013.6
20260901061535 57 17 0.0 1.0 0.00 0.00 0.00 96 1013.5
20260901060034 57 18 0.0 6.0 0.00 0.00 0.00 96 1013.7
20260901054534 57 2 0.0 8.0 0.00 0.00 0.00 96 1013.9
20260901053036 57 356 0.0 2.0 0.00 0.00 0.00 95 1013.8
20260901051536 57 348 0.0 5.0 0.00 0.00 0.00 96 1013.9
20260901050032 57 23 0.0 1.0 0.00 0.00 0.00 95 1013.8
20260901044549 57 333 0.0 0.0 0.00 0.00 0.00 95 1013.8
20260901043031 57 19 0.0 3.0 0.00 0.00 0.00 95 1013.6
20260901041532 57 327 0.0 2.0 0.00 0.00 0.00 95 1013.5
20260901040033 57 346 0.0 6.0 0.00 0.00 0.00 95 1013.4
20260901034535 58 358 0.0 1.0 0.00 0.00 0.00 95 1013.3
20260901033049 58 346 0.0 2.0 0.00 0.00 0.00 95 1013.2
20260901031532 58 335 0.0 2.0 0.00 0.00 0.00 94 1013.1
20260901030034 58 343 0.0 8.0 0.00 0.00 0.00 94 1012.9
20260901024529 58 318 1.0 5.0 0.00 0.00 0.00 94 1012.9
20260901023027 58 300 0.0 2.0 0.00 0.00 0.00 93 1012.9
20260901021531 58 300 0.0 5.0 0.00 0.00 0.00 93 1013.1
20260901020032 58 331 0.0 6.0 0.00 0.00 0.00 92 1013.0
20260901014526 59 298 0.0 6.0 0.00 0.00 0.00 90 1013.0
20260901013031 60 292 0.0 8.0 0.00 0.00 0.00 90 1012.9
20260901011525 60 305 0.0 5.0 0.00 0.00 0.00 88 1013.0
20260901010025 61 289 0.0 8.0 0.00 0.00 0.00 86 1013.0
20260901004525 61 308 0.0 9.0 0.00 0.00 0.00 85 1013.1
20260901003036 63 325 1.0 9.0 0.00 0.00 0.00 82 1013.2
20260901001524 63 294 0.0 6.0 0.00 0.00 0.00 83 1013.2
20260901000031 63 339 1.0 10.0 0.00 0.00 0.00 83 1013.1
20260831234522 63 336 1.0 8.0 0.00 0.00 0.00 82 1013.1
20260831233021 63 298 0.0 10.0 0.00 0.00 0.00 83 1013.2
20260831231520 63 304 1.0 9.0 0.00 0.00 0.00 82 1013.4
20260831230019 63 313 0.0 9.0 0.00 0.00 0.00 83 1013.5
20260831224519 63 296 2.0 9.0 0.00 0.00 0.00 83 1013.5
20260831223021 63 322 0.0 8.0 0.00 0.00 0.00 83 1013.7
20260831221518 63 305 0.0 10.0 0.00 0.00 0.00 83 1013.9
20260831220025 62 308 0.0 11.0 0.00 0.00 0.00 85 1014.0
20260831214515 62 312 0.0 9.0 0.00 0.00 0.00 85 1014.0
20260831213014 62 321 0.0 9.0 0.00 0.00 0.00 85 1014.1
20260831211513 61 296 0.0 9.0 0.00 0.00 0.00 86 1014.3
20260831210013 61 316 0.0 4.0 0.00 0.00 0.00 86 1014.3
20260831204512 61 345 0.0 5.0 0.00 0.00 0.00 85 1014.4
20260831203011 61 333 0.0 3.0 0.00 0.00 0.00 85 1014.2
20260831201511 61 244 0.0 4.0 0.00 0.00 0.00 83 1014.4
20260831200008 61 298 0.0 1.0 0.00 0.00 0.00 84 1014.4
20260831194515 61 310 0.0 2.0 0.00 0.00 0.00 83 1014.2
20260831193006 61 245 0.0 0.0 0.00 0.00 0.00 84 1014.4
20260831191506 61 348 0.0 0.0 0.00 0.00 0.00 83 1014.6
20260831190006 60 304 0.0 5.0 0.00 0.00 0.00 85 1014.5
20260831184506 59 298 0.0 0.0 0.00 0.00 0.00 84 1014.4
20260831183001 60 311 0.0 0.0 0.00 0.00 0.00 85 1014.4
20260831181604 60 301 0.0 2.0 0.00 0.00 0.00 86 1014.3
20260831180101 59 340 0.0 0.0 0.00 0.00 0.00 89 1014.4
20260831174555 59 318 0.0 4.0 0.00 0.00 0.00 93 1014.2
20260831173057 57 221 0.0 0.0 0.00 0.00 0.00 95 1014.1
20260831171548 55 193 0.0 0.0 0.00 0.00 0.00 95 1013.9
20260831170047 55 173 0.0 0.0 0.00 0.00 0.00 96 1013.8
20260831164545 54 182 0.0 0.0 0.00 0.00 0.00 96 1013.7
20260831163044 54 250 0.0 0.0 0.00 0.00 0.00 96 1013.7